Torna al catalogo

CZ-3C DEB

LostGTO
NORAD 40832·DEBRIS·🇨🇳 China

Lanciato Oct 31, 2010 da Xichang Satellite Launch Center

Loading…

TLE

ObsoletoSource: Space-Track

Epoca: Nov 2, 2024, 04:32 UTC

1 40832U 10057AZ  24307.18927890  .00000428  00000-0  37392-2 0  9990
2 40832  19.9495 238.7356 7172897 268.6665  16.1871  2.26618630 79802

Traccia CZ-3C DEB in tempo reale con AllMySat

Download on the App Store